SCP
0 0 0 0 0 0 0 0 -0 0 -0 -0 -0 -0 -0 0 0 0 0 0 0 0 0 0 0 0 0 0 0 0 0 0 0 0 0 0 0 0 0 0 0 0 0
0 0 0 0 0 0 0 0 0 0 0 0 0 0 0 0 0 0 0 0 0 0 0 0 0 0 0 0 0 0 0 0 0 0 0 0 0 0 0 0 0 0 0
0 0 0 0 0 0 0 0 1 0 0 0 0 0 0 0 0 0 0 0 0 0 0 0 0 0 0 0 0 0 0 0 0 0 0 0 0 0 0 0 0 0 0
0 0 0 0 0 0 0 0 1 1 1 1 1 0 1 1 0 0 0 0 0 0 0 0 0 0 0 0 0 0 0 0 0 0 0 0 0 0 0 0 0 0 0
0 0 0 0 0 0 0 0 1 1 2 1 1 1 1 1 1 1 0 0 0 0 0 0 0 0 0 0 0 0 0 0 0 0 0 0 0 0 0 0 0 0 0
0 0 0 0 0 0 0 0 0 1 2 1 1 1 1 1 1 0 0 0 0 0 0 0 0 0 0 0 0 0 0 0 0 0 0 0 0 0 0 0 0 0 0
-0 -0 -0 -0 0 0 0 0 0 0 1 1 1 1 1 1 1 0 1 0 0 0 0 0 0 0 0 0 0 0 0 0 0 0 0 0 0 0 0 0 0 0 0
0 -0 0 0 0 0 0 0 0 0 0 0 0 1 1 1 1 1 1 0 0 0 0 0 0 0 0 0 0 0 0 0 0 0 0 0 0 0 0 0 0 0 0
0 0 0 0 0 0 0 0 0 0 0 0 0 0 0 0 0 0 0 0 0 0 0 0 0 0 0 0 0 0 0 0 0 0 0 0 0 0 0 0 0 0 0
0 0 0 0 0 0 0 0 0 0 0 0 0 0 0 0 0 0 0 0 0 0 0 0 0 0 0 0 0 0 0 0 0 0 0 0 0 0 0 0 0 0 0
0 0 0 0 0 0 0 0 0 0 0 0 0 0 0 0 0 0 0 0 0 0 0 0 0 0 0 0 0 0 0 0 0 0 0 0 0 0 0 0 0 0 0
0 0 0 0 0 0 0 0 0 0 0 0 0 0 0 0 0 0 0 0 0 0 0 0 0 0 0 0 0 0 0 0 0 0 0 0 0 0 0 0 0 0 0
-0 0 0 0 0 0 0 0 0 0 0 0 0 0 0 0 0 0 0 0 0 0 0 0 0 0 0 0 0 0 0 0 0 0 0 0 0 0 0 0 0 0 0
0 0 0 0 0 0 0 0 0 0 0 0 0 0 0 0 0 0 0 0 0 0 0 0 0 0 0 0 0 0 0 0 0 0 0 0 0 0 0 0 0 0 0
0 0 0 0 0 0 0 0 0 0 0 0 0 0 0 0 0 0 0 0 0 0 0 0 0 0 0 0 0 0 0 0 0 0 0 0 0 0 0 0 0 0 0
-0 -0 0 0 0 0 0 0 0 0 0 0 0 0 0 0 0 0 0 0 0 0 0 0 0 0 0 0 0 0 0 0 0 0 0 0 0 0 0 0 0 0 0
0 0 -0 0 0 0 0 0 0 0 0 0 0 0 0 0 0 0 0 0 0 0 0 0 0 0 0 0 0 0 0 0 0 0 0 0 0 0 0 0 0 0 0
0 0 0 0 0 0 0 0 0 0 0 0 0 0 0 0 0 0 0 0 0 0 0 0 0 0 0 0 0 0 0 0 0 0 0 0 0 0 0 0 0 0 0
0 0 0 0 0 0 0 0 0 0 0 0 0 0 0 0 0 0 0 0 0 0 0 0 0 0 0 0 0 0 0 0 0 0 0 0 0 0 0 0 0 0 0
0 0 0 0 0 0 0 0 0 0 0 0 0 0 0 0 0 0 0 0 0 0 0 0 0 0 0 0 0 0 0 0 0 0 0 0 0 0 0 0 0 0 0
-0 0 0 0 0 0 0 0 0 0 0 0 0 0 0 0 0 0 0 0 0 0 0 0 0 0 0 0 0 0 0 0 0 0 0 0 0 0 0 0 0 0 0
0 0 0 0 0 0 0 0 0 0 0 0 0 0 0 0 0 0 0 0 0 0 0 0 0 0 0 0 0 0 0 0 0 0 0 0 0 0 0 0 0 0 0
0 0 0 0 0 0 0 0 0 0 0 0 0 0 0 0 0 0 0 0 0 0 0 0 0 0 0 0 0 0 0 0 0 0 0 0 0 0 0 0 0 0 0
0 0 0 0 0 0 0 0 0 0 0 0 0 0 0 0 0 0 0 0 0 0 0 0 0 0 0 0 0 0 0 0 0 0 0 0 0 0 0 0 0 0 0
0 0 0 0 0 0 0 0 0 0 0 0 0 0 0 0 0 0 0 0 0 0 0 0 0 0 0 0 0 0 0 0 0 0 0 0 0 0 0 0 0 0 0
0 0 0 0 0 0 0 0 0 0 0 0 0 0 0 0 0 0 0 0 0 0 0 0 0 0 0 0 0 0 0 0 0 0 0 0 0 0 0 0 0 0 0
Wind_Speed_500mb
69 65 70 66 62 82 81 72 57 58 72 86 89 84 83 81 80 80 78 77 74 74 78 81 78 73 73 68 61 56 53 53 47 48 53 51 51 52 51 50 49 48 46
51 45 52 51 59 70 70 65 59 65 59 66 76 86 85 85 79 77 78 79 76 72 70 77 80 78 76 73 68 63 65 60 57 58 55 52 58 63 61 57 54 54 55
58 50 55 56 56 62 69 71 68 65 67 67 80 89 89 84 79 80 79 77 75 73 71 69 73 72 75 77 74 75 71 69 65 67 57 28 38 32 40 48 53 56 55
66 60 58 62 65 70 71 71 63 67 72 80 84 89 91 88 78 78 78 75 73 70 72 72 72 74 70 75 76 73 71 76 82 77 79 77 58 30 19 29 32 34 33
62 51 50 45 50 73 85 78 77 73 81 82 83 85 88 82 82 82 83 78 76 73 72 75 75 76 75 76 80 76 78 78 86 88 85 83 79 75 62 43 35 38 38
56 57 58 55 60 62 74 81 73 74 82 79 78 72 70 74 78 81 80 71 70 77 77 79 82 82 79 73 75 75 80 85 83 91 88 86 88 83 81 73 64 55 43
66 72 73 74 67 64 65 77 73 71 73 70 61 58 60 66 67 71 72 68 64 66 70 80 77 78 79 77 76 79 78 85 87 94 94 84 82 82 70 54 45 40 45
64 71 66 66 65 61 65 71 69 67 67 59 56 55 57 61 62 62 63 67 64 61 58 62 69 69 70 71 75 75 73 72 76 80 83 79 75 79 42 44 44 38 40
85 97 86 78 60 65 66 62 65 65 60 53 51 53 53 54 56 55 55 53 57 55 53 54 56 62 64 65 70 72 73 72 73 75 76 68 55 61 56 62 40 37 30
75 79 73 67 63 70 67 66 67 62 53 51 52 48 43 42 41 45 47 47 49 58 53 56 57 55 55 61 65 68 71 70 68 64 62 68 72 44 39 42 41 38 39
71 56 61 66 73 78 75 72 67 60 50 43 41 41 38 36 37 39 42 48 53 56 54 55 56 56 57 63 65 69 65 67 66 68 64 52 48 43 38 40 34 31 31
47 42 53 58 72 82 79 74 65 55 40 34 36 33 32 35 36 40 43 47 51 53 55 55 49 53 62 62 70 71 63 55 60 55 53 48 40 35 36 29 25 25 28
45 37 46 56 76 85 79 71 58 50 40 38 35 30 29 33 35 36 34 32 31 35 39 49 55 58 57 56 58 61 61 57 53 52 46 39 40 31 25 23 24 25 31
49 32 41 59 75 78 74 67 57 54 43 39 32 23 19 25 31 31 30 27 28 34 42 44 46 48 46 46 58 56 51 45 42 39 41 33 26 23 21 19 22 31 36
62 38 47 64 77 81 79 73 64 64 54 45 33 25 24 18 23 26 26 30 35 39 41 44 44 39 44 53 55 47 42 38 38 34 30 27 25 24 21 20 28 30 32
56 49 47 78 91 95 92 84 77 76 67 54 40 35 28 17 22 25 29 26 33 36 41 39 44 50 48 39 32 28 32 34 32 29 26 24 21 18 20 22 24 25 34
71 66 59 51 82 106 103 98 90 86 78 65 52 41 36 29 24 23 30 35 41 39 42 43 44 40 36 32 33 36 34 31 28 26 25 21 20 22 25 29 28 31 44
90 91 85 74 66 76 105 104 95 85 75 69 62 53 45 38 31 31 31 36 43 47 48 44 40 41 41 39 38 35 31 29 26 23 26 31 32 33 36 32 37 46 48
78 97 94 87 73 56 53 91 94 83 83 80 72 62 55 52 45 39 38 46 50 48 44 43 44 43 43 39 34 30 26 23 26 28 31 31 32 36 41 45 52 51 50
77 79 86 80 74 62 65 72 95 103 97 91 80 70 63 56 51 45 48 52 52 53 53 52 45 42 39 36 34 28 26 27 29 28 34 42 47 42 43 50 53 56 51
75 75 60 64 71 71 80 81 98 112 107 96 87 77 68 62 55 53 52 52 60 62 59 57 52 48 43 37 30 28 28 28 34 37 46 46 43 38 43 46 49 52 52
83 81 88 74 68 64 68 70 79 92 104 99 93 81 72 64 62 58 56 60 66 64 59 53 48 43 34 33 29 29 27 35 40 41 39 33 34 38 43 48 50 53 55
88 88 86 94 95 86 78 80 86 94 102 97 86 74 70 68 68 67 64 67 65 61 53 50 45 38 29 28 27 29 36 38 36 31 31 37 46 50 52 56 57 59 58
86 86 94 94 94 86 76 84 84 86 87 86 76 74 78 81 80 76 72 69 61 55 49 43 36 28 26 31 34 30 28 27 35 37 46 50 53 57 61 62 59 55 56
99 91 91 88 81 74 71 73 73 79 82 75 75 79 78 77 74 64 53 49 43 39 31 24 21 22 28 25 23 27 33 41 46 51 55 56 57 60 62 60 57 55 49
90 82 81 74 70 66 66 64 67 70 74 79 84 86 82 70 62 58 54 45 34 26 20 19 18 20 29 35 33 39 42 44 47 53 55 56 57 59 59 58 55 51 48
Wind_Direction_500mb
261 247 239 243 250 239 236 232 238 237 233 227 227 230 233 233 234 235 237 237 236 238 238 239 238 235 237 236 236 239 237 235 233 238 242 247 248 252 256 260 263 265 268
251 227 230 228 232 234 235 232 236 230 232 233 231 231 233 234 235 237 238 237 235 236 238 238 242 240 237 237 235 235 239 237 232 235 243 248 251 251 255 259 260 264 267
247 231 228 229 228 229 232 237 236 236 232 230 229 231 233 236 238 240 241 242 239 236 238 239 241 244 241 238 238 239 235 240 239 235 232 234 240 250 255 256 258 260 265
242 241 247 247 247 246 239 239 236 238 233 230 230 231 234 235 240 243 247 249 248 243 238 239 241 245 243 242 241 239 240 241 242 237 235 240 249 249 250 252 248 246 256
245 253 256 268 266 256 246 239 240 235 229 234 235 235 235 239 242 245 248 250 254 253 248 244 243 244 244 244 244 242 240 242 245 241 241 245 246 250 246 249 240 253 258
258 261 271 282 283 274 237 235 237 234 230 234 237 240 240 242 244 246 248 249 251 253 252 249 247 244 244 244 245 246 246 247 247 249 250 251 250 250 251 253 256 266 266
265 272 275 283 286 269 232 225 226 228 227 229 230 232 241 247 252 252 253 254 254 252 252 251 252 250 249 244 247 243 246 249 252 254 256 256 253 257 261 259 258 255 265
267 271 276 283 284 256 231 221 223 219 214 211 221 233 240 245 251 254 255 255 256 259 261 256 255 253 252 250 246 247 248 252 255 258 258 258 261 249 254 266 257 253 261
278 274 268 270 264 233 224 219 218 204 204 214 222 229 235 241 247 251 254 253 254 259 259 255 261 255 256 252 253 247 243 250 256 261 256 251 253 254 254 251 237 249 251
297 269 257 257 242 221 214 207 202 202 207 213 215 218 226 233 241 244 247 250 251 255 253 263 256 254 255 249 248 246 247 253 258 246 246 253 261 230 231 247 252 254 252
305 274 254 254 232 212 203 197 197 200 201 205 209 213 220 226 236 242 243 243 245 251 254 263 255 256 257 250 252 250 248 257 259 255 257 238 221 233 244 247 244 247 251
309 281 255 241 212 200 197 196 196 199 202 209 214 220 229 236 239 239 240 243 246 252 252 255 257 249 253 256 259 254 254 260 238 232 243 242 244 247 235 231 230 243 266
315 288 251 223 201 196 195 196 199 201 205 207 209 213 229 242 245 244 239 245 249 242 251 257 259 260 260 259 252 245 242 230 236 239 230 235 232 224 222 230 250 263 264
291 277 230 208 199 200 201 202 204 203 205 205 196 199 218 235 242 241 246 247 253 258 259 263 263 258 253 246 231 223 220 227 217 224 229 221 216 222 235 244 258 275 275
279 258 236 220 211 210 210 211 209 206 206 206 202 206 213 222 244 242 239 241 248 255 257 262 258 245 240 217 213 212 208 210 211 207 204 209 216 224 231 260 277 278 281
269 271 265 243 226 222 220 215 212 212 212 212 213 212 202 222 241 235 235 245 253 258 261 251 234 214 202 199 199 204 205 196 196 200 207 215 219 244 269 274 276 283 289
261 270 274 269 245 231 226 222 217 216 215 216 216 211 211 215 225 227 224 238 237 234 226 215 207 203 201 201 198 196 193 191 197 206 209 223 260 272 275 275 280 288 278
267 266 264 261 266 253 236 228 226 220 219 219 217 215 216 215 212 219 225 233 227 219 207 201 193 194 193 194 195 194 194 197 206 223 249 260 258 256 261 271 283 274 272
284 273 270 261 253 255 254 237 234 231 227 225 223 218 217 214 210 212 211 218 213 204 202 201 201 201 194 192 194 198 208 230 250 262 268 270 280 277 275 275 274 272 273
281 287 277 259 245 245 247 243 236 232 230 228 226 221 219 214 209 203 203 205 212 212 204 198 198 197 199 195 200 215 249 258 260 270 272 267 261 263 272 276 278 277 277
273 271 280 261 258 257 253 244 236 232 234 228 224 220 214 207 205 201 203 206 204 199 197 196 192 194 195 202 228 239 255 266 263 251 259 267 264 272 275 276 275 276 276
267 259 261 264 273 275 257 243 240 238 233 223 218 213 206 200 202 202 201 203 201 199 191 189 190 193 217 224 245 251 249 248 247 252 259 273 276 271 271 272 273 274 276
278 263 252 259 267 270 264 251 239 230 224 217 211 203 197 198 200 203 204 200 197 196 192 195 204 216 226 243 235 240 243 246 251 263 270 271 272 273 271 271 274 278 281
279 266 259 256 258 255 247 239 233 219 215 203 200 194 193 192 195 195 193 188 186 191 200 207 204 208 217 229 237 244 253 261 268 270 270 270 271 274 278 281 285 285 283
267 261 253 248 243 230 225 221 216 209 203 198 191 187 188 188 180 178 180 187 192 197 192 193 200 213 221 230 252 262 264 264 267 268 271 273 275 276 278 280 282 283 279
256 245 234 226 216 206 200 195 195 196 196 186 182 182 181 178 180 181 176 175 174 166 174 201 216 228 238 246 251 256 259 263 266 267 271 274 278 282 287 290 293 294 292
Wind_Speed_850mb
69 65 70 66 62 82 81 72 57 58 72 86 89 84 83 81 80 80 78 77 74 74 78 81 78 73 73 68 61 56 53 53 47 48 53 51 51 52 51 50 49 48 46
51 45 52 51 59 70 70 65 59 65 59 66 76 86 85 85 79 77 78 79 76 72 70 77 80 78 76 73 68 63 65 60 57 58 55 52 58 63 61 57 54 54 55
58 50 55 56 56 62 69 71 68 65 67 67 80 89 89 84 79 80 79 77 75 73 71 69 73 72 75 77 74 75 71 69 65 67 57 28 38 32 40 48 53 56 55
66 60 58 62 65 70 71 71 63 67 72 80 84 89 91 88 78 78 78 75 73 70 72 72 72 74 70 75 76 73 71 76 82 77 79 77 58 30 19 29 32 34 33
62 51 50 45 50 73 85 78 77 73 81 82 83 85 88 82 82 82 83 78 76 73 72 75 75 76 75 76 80 76 78 78 86 88 85 83 79 75 62 43 35 38 38
56 57 58 55 60 62 74 81 73 74 82 79 78 72 70 74 78 81 80 71 70 77 77 79 82 82 79 73 75 75 80 85 83 91 88 86 88 83 81 73 64 55 43
66 72 73 74 67 64 65 77 73 71 73 70 61 58 60 66 67 71 72 68 64 66 70 80 77 78 79 77 76 79 78 85 87 94 94 84 82 82 70 54 45 40 45
64 71 66 66 65 61 65 71 69 67 67 59 56 55 57 61 62 62 63 67 64 61 58 62 69 69 70 71 75 75 73 72 76 80 83 79 75 79 42 44 44 38 40
85 97 86 78 60 65 66 62 65 65 60 53 51 53 53 54 56 55 55 53 57 55 53 54 56 62 64 65 70 72 73 72 73 75 76 68 55 61 56 62 40 37 30
75 79 73 67 63 70 67 66 67 62 53 51 52 48 43 42 41 45 47 47 49 58 53 56 57 55 55 61 65 68 71 70 68 64 62 68 72 44 39 42 41 38 39
71 56 61 66 73 78 75 72 67 60 50 43 41 41 38 36 37 39 42 48 53 56 54 55 56 56 57 63 65 69 65 67 66 68 64 52 48 43 38 40 34 31 31
47 42 53 58 72 82 79 74 65 55 40 34 36 33 32 35 36 40 43 47 51 53 55 55 49 53 62 62 70 71 63 55 60 55 53 48 40 35 36 29 25 25 28
45 37 46 56 76 85 79 71 58 50 40 38 35 30 29 33 35 36 34 32 31 35 39 49 55 58 57 56 58 61 61 57 53 52 46 39 40 31 25 23 24 25 31
49 32 41 59 75 78 74 67 57 54 43 39 32 23 19 25 31 31 30 27 28 34 42 44 46 48 46 46 58 56 51 45 42 39 41 33 26 23 21 19 22 31 36
62 38 47 64 77 81 79 73 64 64 54 45 33 25 24 18 23 26 26 30 35 39 41 44 44 39 44 53 55 47 42 38 38 34 30 27 25 24 21 20 28 30 32
56 49 47 78 91 95 92 84 77 76 67 54 40 35 28 17 22 25 29 26 33 36 41 39 44 50 48 39 32 28 32 34 32 29 26 24 21 18 20 22 24 25 34
71 66 59 51 82 106 103 98 90 86 78 65 52 41 36 29 24 23 30 35 41 39 42 43 44 40 36 32 33 36 34 31 28 26 25 21 20 22 25 29 28 31 44
90 91 85 74 66 76 105 104 95 85 75 69 62 53 45 38 31 31 31 36 43 47 48 44 40 41 41 39 38 35 31 29 26 23 26 31 32 33 36 32 37 46 48
78 97 94 87 73 56 53 91 94 83 83 80 72 62 55 52 45 39 38 46 50 48 44 43 44 43 43 39 34 30 26 23 26 28 31 31 32 36 41 45 52 51 50
77 79 86 80 74 62 65 72 95 103 97 91 80 70 63 56 51 45 48 52 52 53 53 52 45 42 39 36 34 28 26 27 29 28 34 42 47 42 43 50 53 56 51
75 75 60 64 71 71 80 81 98 112 107 96 87 77 68 62 55 53 52 52 60 62 59 57 52 48 43 37 30 28 28 28 34 37 46 46 43 38 43 46 49 52 52
83 81 88 74 68 64 68 70 79 92 104 99 93 81 72 64 62 58 56 60 66 64 59 53 48 43 34 33 29 29 27 35 40 41 39 33 34 38 43 48 50 53 55
88 88 86 94 95 86 78 80 86 94 102 97 86 74 70 68 68 67 64 67 65 61 53 50 45 38 29 28 27 29 36 38 36 31 31 37 46 50 52 56 57 59 58
86 86 94 94 94 86 76 84 84 86 87 86 76 74 78 81 80 76 72 69 61 55 49 43 36 28 26 31 34 30 28 27 35 37 46 50 53 57 61 62 59 55 56
99 91 91 88 81 74 71 73 73 79 82 75 75 79 78 77 74 64 53 49 43 39 31 24 21 22 28 25 23 27 33 41 46 51 55 56 57 60 62 60 57 55 49
90 82 81 74 70 66 66 64 67 70 74 79 84 86 82 70 62 58 54 45 34 26 20 19 18 20 29 35 33 39 42 44 47 53 55 56 57 59 59 58 55 51 48
Wind_Direction_850mb
261 247 239 243 250 239 236 232 238 237 233 227 227 230 233 233 234 235 237 237 236 238 238 239 238 235 237 236 236 239 237 235 233 238 242 247 248 252 256 260 263 265 268
251 227 230 228 232 234 235 232 236 230 232 233 231 231 233 234 235 237 238 237 235 236 238 238 242 240 237 237 235 235 239 237 232 235 243 248 251 251 255 259 260 264 267
247 231 228 229 228 229 232 237 236 236 232 230 229 231 233 236 238 240 241 242 239 236 238 239 241 244 241 238 238 239 235 240 239 235 232 234 240 250 255 256 258 260 265
242 241 247 247 247 246 239 239 236 238 233 230 230 231 234 235 240 243 247 249 248 243 238 239 241 245 243 242 241 239 240 241 242 237 235 240 249 249 250 252 248 246 256
245 253 256 268 266 256 246 239 240 235 229 234 235 235 235 239 242 245 248 250 254 253 248 244 243 244 244 244 244 242 240 242 245 241 241 245 246 250 246 249 240 253 258
258 261 271 282 283 274 237 235 237 234 230 234 237 240 240 242 244 246 248 249 251 253 252 249 247 244 244 244 245 246 246 247 247 249 250 251 250 250 251 253 256 266 266
265 272 275 283 286 269 232 225 226 228 227 229 230 232 241 247 252 252 253 254 254 252 252 251 252 250 249 244 247 243 246 249 252 254 256 256 253 257 261 259 258 255 265
267 271 276 283 284 256 231 221 223 219 214 211 221 233 240 245 251 254 255 255 256 259 261 256 255 253 252 250 246 247 248 252 255 258 258 258 261 249 254 266 257 253 261
278 274 268 270 264 233 224 219 218 204 204 214 222 229 235 241 247 251 254 253 254 259 259 255 261 255 256 252 253 247 243 250 256 261 256 251 253 254 254 251 237 249 251
297 269 257 257 242 221 214 207 202 202 207 213 215 218 226 233 241 244 247 250 251 255 253 263 256 254 255 249 248 246 247 253 258 246 246 253 261 230 231 247 252 254 252
305 274 254 254 232 212 203 197 197 200 201 205 209 213 220 226 236 242 243 243 245 251 254 263 255 256 257 250 252 250 248 257 259 255 257 238 221 233 244 247 244 247 251
309 281 255 241 212 200 197 196 196 199 202 209 214 220 229 236 239 239 240 243 246 252 252 255 257 249 253 256 259 254 254 260 238 232 243 242 244 247 235 231 230 243 266
315 288 251 223 201 196 195 196 199 201 205 207 209 213 229 242 245 244 239 245 249 242 251 257 259 260 260 259 252 245 242 230 236 239 230 235 232 224 222 230 250 263 264
291 277 230 208 199 200 201 202 204 203 205 205 196 199 218 235 242 241 246 247 253 258 259 263 263 258 253 246 231 223 220 227 217 224 229 221 216 222 235 244 258 275 275
279 258 236 220 211 210 210 211 209 206 206 206 202 206 213 222 244 242 239 241 248 255 257 262 258 245 240 217 213 212 208 210 211 207 204 209 216 224 231 260 277 278 281
269 271 265 243 226 222 220 215 212 212 212 212 213 212 202 222 241 235 235 245 253 258 261 251 234 214 202 199 199 204 205 196 196 200 207 215 219 244 269 274 276 283 289
261 270 274 269 245 231 226 222 217 216 215 216 216 211 211 215 225 227 224 238 237 234 226 215 207 203 201 201 198 196 193 191 197 206 209 223 260 272 275 275 280 288 278
267 266 264 261 266 253 236 228 226 220 219 219 217 215 216 215 212 219 225 233 227 219 207 201 193 194 193 194 195 194 194 197 206 223 249 260 258 256 261 271 283 274 272
284 273 270 261 253 255 254 237 234 231 227 225 223 218 217 214 210 212 211 218 213 204 202 201 201 201 194 192 194 198 208 230 250 262 268 270 280 277 275 275 274 272 273
281 287 277 259 245 245 247 243 236 232 230 228 226 221 219 214 209 203 203 205 212 212 204 198 198 197 199 195 200 215 249 258 260 270 272 267 261 263 272 276 278 277 277
273 271 280 261 258 257 253 244 236 232 234 228 224 220 214 207 205 201 203 206 204 199 197 196 192 194 195 202 228 239 255 266 263 251 259 267 264 272 275 276 275 276 276
267 259 261 264 273 275 257 243 240 238 233 223 218 213 206 200 202 202 201 203 201 199 191 189 190 193 217 224 245 251 249 248 247 252 259 273 276 271 271 272 273 274 276
278 263 252 259 267 270 264 251 239 230 224 217 211 203 197 198 200 203 204 200 197 196 192 195 204 216 226 243 235 240 243 246 251 263 270 271 272 273 271 271 274 278 281
279 266 259 256 258 255 247 239 233 219 215 203 200 194 193 192 195 195 193 188 186 191 200 207 204 208 217 229 237 244 253 261 268 270 270 270 271 274 278 281 285 285 283
267 261 253 248 243 230 225 221 216 209 203 198 191 187 188 188 180 178 180 187 192 197 192 193 200 213 221 230 252 262 264 264 267 268 271 273 275 276 278 280 282 283 279
256 245 234 226 216 206 200 195 195 196 196 186 182 182 181 178 180 181 176 175 174 166 174 201 216 228 238 246 251 256 259 263 266 267 271 274 278 282 287 290 293 294 292